Broomfield, CO

2:06 PM MDT on March 26, 2017 (GMT -0600)
Jeffco

Weather History for KBJC - May, 2013

Change the Weather History Date:

Tuesday, May 14, 2013

  Actual Average Record
Temperature  
Mean Temperature 72 °F -  
Max Temperature 84 °F 67 °F 84 °F (2013)
Min Temperature 60 °F 44 °F 33 °F (1986)
Cooling Degree Days 7    
Growing Degree Days 22 (Base 50)    
Moisture  
Dew Point 31 °F    
Average Humidity 26    
Maximum Humidity 34    
Minimum Humidity 11    
Precipitation  
Precipitation 0.00 in - - ()
Sea Level Pressure  
Sea Level Pressure 30.05 in    
Wind  
Wind Speed 7 mph (SW)    
Max Wind Speed 28 mph    
Max Gust Speed 40 mph    
Visibility 10 miles    
Events Rain    
Averages and records for this station are not official NWS values.
T = Trace of Precipitation, MM = Missing Value Source: NWS Daily Summary

Daily Weather History Graph

Daily Weather History Graph

Search for Another Location

Airport or City:

Trip Planner

Search our weather history database for the weather conditions in past years. The results will help you decide how hot, cold, wet, or windy it might be!

Date:

Astronomy

May. 14, 2013 Rise Set
Actual Time 5:46 AM MDT 8:08 PM MDT
Civil Twilight 5:15 AM MDT 8:38 PM MDT
Nautical Twilight 4:37 AM MDT 9:16 PM MDT
Astronomical Twilight 3:56 AM MDT 9:58 PM MDT
Moon 9:28 AM MDT (5/14) 11:57 PM MDT (5/14)
Length of Visible Light 15h 23m
Length of Day
14h 22m
Waxing Crescent, 19% of the Moon is Illuminated
May 14
Waxing Crescent
May 17
First Quarter
May 24
Full
May 31
Last Quarter
Jun 8
New

Hourly Weather History & Observations

Time (MDT) Temp. Dew Point Humidity Pressure Visibility Wind Dir Wind Speed Gust Speed Precip Events Conditions
12:15 AM 62.6 °F 32.0 °F 32% 30.09 in 10.0 mi SW 3.5 mph - N/A   Clear
12:35 AM 62.6 °F 33.8 °F 34% 30.08 in 10.0 mi WSW 6.9 mph - N/A   Clear
12:55 AM 64.4 °F 32.0 °F 30% 30.08 in 10.0 mi WSW 9.2 mph - N/A   Clear
1:15 AM 62.6 °F 32.0 °F 32% 30.08 in 10.0 mi WSW 5.8 mph - N/A   Clear
1:35 AM 64.4 °F 32.0 °F 30% 30.07 in 10.0 mi West 9.2 mph - N/A   Clear
1:55 AM 64.4 °F 32.0 °F 30% 30.06 in 10.0 mi West 10.4 mph - N/A   Clear
2:15 AM 62.6 °F 32.0 °F 32% 30.06 in 10.0 mi West 8.1 mph - N/A   Clear
2:35 AM 64.4 °F 32.0 °F 30% 30.06 in 10.0 mi West 6.9 mph - N/A   Clear
2:54 AM 64.4 °F 32.0 °F 30% 30.05 in 10.0 mi West 8.1 mph - N/A   Clear
3:15 AM 66.2 °F 30.2 °F 26% 30.05 in 10.0 mi SW 5.8 mph - N/A   Clear
3:34 AM 64.4 °F 32.0 °F 30% 30.06 in 10.0 mi SW 4.6 mph - N/A   Clear
3:55 AM 60.8 °F 32.0 °F 34% 30.06 in 10.0 mi South 5.8 mph - N/A   Clear
4:15 AM 64.4 °F 32.0 °F 30% 30.06 in 10.0 mi SSW 5.8 mph - N/A   Clear
4:35 AM 64.4 °F 32.0 °F 30% 30.06 in 10.0 mi WSW 4.6 mph - N/A   Clear
4:55 AM 62.6 °F 32.0 °F 32% 30.06 in 10.0 mi Calm Calm - N/A   Clear
5:15 AM 64.4 °F 30.2 °F 28% 30.06 in 10.0 mi Calm Calm - N/A   Clear
5:35 AM 66.2 °F 30.2 °F 26% 30.06 in 10.0 mi Calm Calm - N/A   Clear
5:47 AM 62.6 °F 30.2 °F 30% 30.06 in 50.0 mi Calm Calm - N/A   Scattered Clouds
5:55 AM 64.4 °F 30.2 °F 28% 30.06 in 10.0 mi WSW 3.5 mph - N/A   Clear
6:47 AM 64.4 °F 33.8 °F 32% 30.07 in 50.0 mi WSW 8.1 mph - N/A   Scattered Clouds
7:50 AM 71.6 °F 35.6 °F 27% 30.08 in 50.0 mi SSW 3.5 mph - N/A   Mostly Cloudy
8:47 AM 77.0 °F 37.4 °F 24% 30.08 in 50.0 mi Calm Calm - N/A   Partly Cloudy
9:50 AM 80.6 °F 32.0 °F 17% 30.07 in 50.0 mi SSE 4.6 mph - N/A   Partly Cloudy
10:50 AM 82.4 °F 24.8 °F 12% 30.07 in 50.0 mi ESE 5.8 mph - N/A   Scattered Clouds
11:50 AM 84.2 °F 24.8 °F 11% 30.06 in 50.0 mi Variable 3.5 mph - N/A   Scattered Clouds
12:50 PM 80.6 °F 24.8 °F 13% 30.04 in 50.0 mi NW 18.4 mph 24.2 mph N/A   Mostly Cloudy
1:46 PM 77.0 °F 23.0 °F 13% 30.03 in 50.0 mi SSW 19.6 mph 32.2 mph N/A   Mostly Cloudy
2:07 PM 75.2 °F 28.4 °F 18% 30.03 in 40.0 mi SSW 27.6 mph 40.3 mph N/A   Mostly Cloudy
2:50 PM 75.2 °F 28.4 °F 18% 30.07 in 40.0 mi West 18.4 mph 40.3 mph N/A Rain Light Rain
3:25 PM 77.0 °F 26.6 °F 16% 30.02 in 40.0 mi East 9.2 mph 25.3 mph N/A Rain Light Rain Showers
4:53 PM 78.8 °F 30.2 °F 17% 30.01 in 40.0 mi South 23.0 mph - N/A   Mostly Cloudy
5:53 PM 73.4 °F 32.0 °F 22% 29.99 in 35.0 mi SW 20.7 mph 28.8 mph N/A   Mostly Cloudy
6:48 PM 71.6 °F 32.0 °F 23% 30.00 in 40.0 mi SSW 13.8 mph 23.0 mph N/A   Mostly Cloudy
7:46 PM 68.0 °F 37.4 °F 33% 30.02 in 40.0 mi Variable 5.8 mph - N/A   Mostly Cloudy
8:45 PM 66.2 °F 35.6 °F 32% 30.01 in 30.0 mi WSW 8.1 mph - N/A   Mostly Cloudy
9:53 PM 68.0 °F 32.0 °F 26% 30.02 in 20.0 mi West 15.0 mph - N/A   Mostly Cloudy
11:15 PM 66.2 °F 33.8 °F 30% 30.00 in 10.0 mi West 10.4 mph - N/A   Clear
11:35 PM 69.8 °F 32.0 °F 25% 29.99 in 10.0 mi West 17.3 mph - N/A   Clear
11:55 PM 66.2 °F 32.0 °F 28% 30.00 in 10.0 mi SW 5.8 mph - N/A   Clear